CDT,Max TemperatureF,Mean TemperatureF,Min TemperatureF,Max Dew PointF,MeanDew PointF,Min DewpointF,Max Humidity, Mean Humidity, Min Humidity, Max Sea Level PressureIn, Mean Sea Level PressureIn, Min Sea Level PressureIn, Max VisibilityMiles, Mean VisibilityMiles, Min VisibilityMiles, Max Wind SpeedMPH, Mean Wind SpeedMPH, Max Gust SpeedMPH,PrecipitationIn, CloudCover, Events, WindDirDegrees
2012-10-1,73,60,48,48,44,39,82,59,36,29.93,29.89,29.86,10,10,10,17,5,26,0.00,0,,346
2012-10-2,71,56,42,48,40,37,87,58,29,29.97,29.92,29.86,10,10,10,8,2,,0.00,0,,66
2012-10-3,77,60,42,48,42,39,93,58,26,29.94,29.90,29.86,10,10,5,14,3,18,0.00,0,,163
2012-10-4,60,50,41,43,35,28,76,57,41,30.18,30.03,29.86,10,10,10,25,13,32,0.00,2,Rain,275
2012-10-5,48,42,35,30,25,19,75,54,32,30.19,30.16,30.11,10,10,10,22,12,31,0.00,2,,293
2012-10-6,41,37,33,30,24,19,75,59,45,30.25,30.21,30.14,10,10,10,22,12,33,0.00,7,,317
2012-10-7,51,36,21,25,19,16,86,49,24,30.23,30.12,29.96,10,10,10,16,5,21,0.00,1,,231
2012-10-8,66,50,33,46,29,21,82,49,23,29.95,29.80,29.69,10,10,10,25,11,34,0.02,3,Rain,198
2012-10-9,51,44,37,48,38,25,100,75,46,29.99,29.84,29.76,10,10,5,24,7,31,0.07,6,Rain,276
2012-10-10,51,42,32,28,25,21,75,53,33,30.13,30.05,29.95,10,10,10,15,10,22,0.00,2,,257
2012-10-11,50,42,32,34,25,16,66,47,29,30.37,30.09,29.89,10,10,10,17,11,25,0.00,1,,312
2012-10-12,51,36,21,28,19,12,86,49,21,30.42,30.31,30.07,10,10,10,14,4,23,0.00,1,Rain-Thunderstorm,149
2012-10-13,66,55,44,63,52,30,100,93,53,30.07,29.80,29.66,10,6,0,16,10,22,0.28,8,Fog-Rain-Thunderstorm,177
2012-10-14,55,50,46,55,44,36,100,82,47,29.88,29.73,29.64,10,7,1,23,11,30,0.16,6,Rain,344
2012-10-15,62,48,35,43,38,34,93,64,37,29.97,29.90,29.81,10,10,10,9,5,,0.00,1,,230
2012-10-16,66,57,46,50,46,41,100,71,52,29.80,29.55,29.39,10,10,7,16,8,20,0.00,1,,160
2012-10-17,62,54,46,54,45,37,100,75,42,29.38,29.32,29.25,10,9,5,22,8,29,0.00,4,Rain,230
2012-10-18,46,44,41,43,41,37,93,89,76,29.38,29.28,29.21,10,9,2,14,7,23,0.00,7,Rain,266
2012-10-19,48,42,37,46,42,36,100,95,87,29.73,29.57,29.38,10,7,0,14,3,21,0.17,6,Fog-Rain,325
2012-10-20,48,42,37,45,42,37,100,94,82,29.84,29.80,29.74,10,6,0,9,4,,0.00,7,Fog,214
2012-10-21,69,56,42,54,45,41,93,80,53,29.85,29.83,29.79,10,10,10,16,8,24,0.00,0,,158
2012-10-22,62,58,55,57,56,54,94,90,82,29.89,29.86,29.84,10,6,1,13,8,16,0.00,8,Rain-Thunderstorm,84
2012-10-23,68,64,59,66,62,57,100,94,83,29.83,29.76,29.71,10,5,1,18,9,22,0.01,8,Rain,163
2012-10-24,68,60,53,66,59,54,100,98,94,29.83,29.76,29.69,7,2,0,14,4,16,0.03,8,Fog-Rain-Thunderstorm,5
2012-10-25,53,44,35,52,38,27,100,89,70,30.18,29.84,29.51,10,8,1,28,16,39,0.57,8,Rain-Thunderstorm,324
2012-10-26,41,36,30,27,26,23,86,68,56,30.38,30.32,30.19,10,10,10,21,12,28,0.00,5,,288
2012-10-27,41,34,26,27,23,18,93,66,39,30.37,30.33,30.29,10,10,10,8,3,,0.00,2,,282
2012-10-28,44,34,23,27,23,19,93,68,37,30.35,30.31,30.27,10,10,10,12,2,,0.00,0,,157
2012-10-29,44,35,26,30,27,21,80,69,53,30.32,30.28,30.21,10,10,10,8,4,,0.00,4,,128
2012-10-30,50,39,28,30,26,21,86,65,37,30.21,30.10,30.02,10,10,10,17,5,22,0.00,0,,12
2012-10-31,48,36,24,28,20,12,80,56,24,30.03,29.98,29.94,10,10,10,14,6,20,0.00,1,,331